ATLAS D R/B, 2328

Orbit data source: Space-Track

ATLAS D R/B, 2328 is space debris in LEO originally from a launch on Thu, 14 Jul 1966 UTC launched from the Air Force Western Test Range (AFWTR). Debris objects in space refer to the collection of defunct objects orbiting the Earth. Examples of debris include non-operational satellites, rocket bodies, and fragments generated from explosions, collisions, or faulty payload assembly.

Loading next visibility...
ATLAS D R/B details
Identifier
2328, 1966-063C
Orbit
LEO
Last TLE update14 hours ago
Origin
Flag of USUSAF OAR (US)
ManufacturerABL
MissionSpacecraft
Bus & MotorALTAIR, Unknown motor
Mass~125 kg wet, ~125 kg dry
Launch date (UTC)
1966-07-14 (59 years ago)
Launch vehicleUnknown
Launch site
Air Force Western Test Range (AFWTR)
Object type
Payload
Rocket body
Debris
Shape & HBRCyl, 3.1 m
Radar Cross Section8.765 m², Medium (>0.1 m² and < 1m²)

Expand to show TLE details & history

TLE from 14 hours ago
0 ATLAS D R/B
1 02328U 66063C   25013.85420062  .00000286  00000-0  43969-4 0  9995
2 02328 144.2343  31.3435 0010117 214.8323 187.3702 13.69934569929003
Epoch: 2025-01-13T20:30Z
Definitive object data (Epoch: 2025-01-13T20:30:02.933Z)
Latitude23.19828°
Longitude-66.02916°
Altitude1,006.173 km
Speed7.349 km/s
True Right ascension23h 40m 12s
True Declination23° 04' 42"
Sunlit
Object was in daylight at TLE epoch
Visualization TLE readout
Latitude-27.02106°
Longitude17.78318°
Altitude1,006.095 km
Speed7.349 km/s
Apparent Right ascension02h 36m 10s
Apparent Declination-44° 27' 04"
Sunlit
Object is in partial shadow
Visualization observer readout
Local Sidereal Time10:38:42
Azimuth243.688° WSW
Elevation-46.747°
Doppler factor1
Orbital elements
Apogee altitude1,010.189 km
Perigee altitude995.255 km
Semi-major axis7,380.859 km
Eccentricity0.0010117
Inclination144.2343°
RAAN31.3435°
Arg. of periapsis214.8323°
True anomaly187.35535°
Mean anomaly187.3702°
Eccentric anomaly187.36277°
Mean motion3.42281 °/min
BSTAR0.000043969
Orbital period105.18 mins
Loading maneuver chart data...
Loading historical data...
Loading historical data...
Loading historical data...
Loading historical data...
Loading historical data...
Loading historical data...
Loading historical data...

ATLAS D R/B Visibility forecast

Observer location: undefined°, undefined

Span
Click to sort rows by Start time (UTC) header in descending order
Start Az.
Max El. time (UTC)
Max El. Az.
Max El.
End time (UTC)
End Az.
8 mins2025-01-14 16:06:40.873Z109.328° ESE2025-01-14 16:10:40.873Z157.526° S20.511°2025-01-14 16:14:40.873Z200.959° SSW
9 mins2025-01-14 17:45:40.873Z97.9° ESE2025-01-14 17:49:40.873Z153.822° SSE35.079°2025-01-14 17:54:40.873Z232.092° WSW
9 mins2025-01-14 19:25:40.873Z103.305° ESE2025-01-14 19:29:40.873Z184.219° SSW41.253°2025-01-14 19:34:40.873Z256.228° W
10 mins2025-01-14 21:04:40.873Z120.144° SE2025-01-14 21:08:40.873Z179.564° S38.33°2025-01-14 21:14:40.873Z267.135° W
9 mins2025-01-14 22:44:40.873Z151.836° SSE2025-01-14 22:48:40.873Z204.565° SW26.303°2025-01-14 22:53:40.873Z262.643° W
|